This demonstration page uses our WeatherBlox Daily Observations layout. Learn more.

Left ArrowRight Arrow

39.08367, -84.50855

Hourly Observations for February 9, 2022

Temp ( °F °C ) Dew Point ( °F °C ) Humidity (%) Winds ( mph kmh ) Pressure ( in mb ) Visibility ( mi km ) Precip ( " mm )
12:53 am 00:53 Clear 38 3.3 28 -2.2 68 68 S 12 19 29.96 1015 10 16 0.00 0.00
1:53 am 01:53 Clear 38 3.3 27 -2.8 65 65 SSW 9 15 29.95 1014 10 16 0.00 0.00
2:53 am 02:53 Clear 37 2.8 27 -2.8 67 67 SSW 9 15 29.94 1014 10 16 0.00 0.00
3:53 am 03:53 Clear 38 3.3 26 -3.3 62 62 SW 5 7 29.91 1013 10 16 0.00 0.00
4:53 am 04:53 Clear 40 4.4 25 -3.9 55 55 WSW 5 7 29.90 1012 10 16 0.00 0.00
5:53 am 05:53 Clear 39 3.9 27 -2.8 62 62 SSW 10 17 29.89 1012 10 16 0.00 0.00
6:53 am 06:53 Clear 38 3.3 28 -2.2 68 68 SSW 10 17 29.88 1012 10 16 0.00 0.00
7:53 am 07:53 Mostly Sunny 39 3.9 28 -2.2 65 65 SSW 13 20 29.89 1012 10 16 0.00 0.00
8:53 am 08:53 Cloudy 40 4.4 29 -1.7 65 65 SSW 10 17 29.91 1013 10 16 0.00 0.00
9:53 am 09:53 Partly Cloudy 42 5.6 29 -1.7 60 60 SSW 8 13 29.90 1012 10 16 0.00 0.00
10:53 am 10:53 Mostly Sunny 45 7.2 30 -1.1 56 56 SW 13 20 29.89 1012 10 16 0.00 0.00
11:53 am 11:53 Sunny 47 8.3 31 -0.6 54 54 SSW 18 30 29.87 1011 10 16 0.00 0.00
12:53 pm 12:53 Sunny 49 9.4 32 0 52 52 SSW 15 24 29.84 1011 10 16 0.00 0.00
1:53 pm 13:53 Sunny 49 9.4 33 0.6 55 55 SSW 15 24 29.82 1010 10 16 0.00 0.00
2:53 pm 14:53 Sunny 49 9.4 33 0.6 55 55 S 13 20 29.81 1009 10 16 0.00 0.00
3:53 pm 15:53 Sunny 48 8.9 34 1.1 58 58 SSW 10 17 29.81 1010 10 16 0.00 0.00
4:53 pm 16:53 Sunny 49 9.4 34 1.1 56 56 SSW 10 17 29.82 1010 10 16 0.00 0.00
5:53 pm 17:53 Cloudy 49 9.4 31 -0.6 50 50 WSW 16 26 29.83 1010 10 16 0.00 0.00
6:53 pm 18:53 Mostly Cloudy 44 6.7 29 -1.7 55 55 SW 9 15 29.86 1011 10 16 0.00 0.00
7:53 pm 19:53 Cloudy 45 7.2 28 -2.2 52 52 WSW 10 17 29.89 1012 10 16 0.00 0.00
8:53 pm 20:53 Cloudy 44 6.7 30 -1.1 58 58 WSW 13 20 29.91 1013 10 16 0.00 0.00
9:53 pm 21:53 Cloudy 42 5.6 31 -0.6 65 65 W 8 13 29.92 1013 10 16 0.00 0.00
10:53 pm 22:53 Clear 39 3.9 30 -1.1 70 70 WSW 6 9 29.93 1014 10 16 0.00 0.00
11:53 pm 23:53 Cloudy 37 2.8 32 0 82 82 SSW 7 11 29.93 1014 10 16 0.00 0.00

Powered by AerisWeather